Oakland, MD

2:36 AM EDT on March 28, 2017 (GMT -0400)
Oakland

Weather History for K2G4 - February, 2014

Change the Weather History Date:

Wednesday, February 19, 2014

  Actual Average (KMGW) Record (KMGW)
Temperature  
Mean Temperature 38 °F -  
Max Temperature 44 °F 46 °F 73 °F (1994)
Min Temperature 32 °F 28 °F 0 °F (2015)
Degree Days  
Heating Degree Days 27    
Moisture  
Dew Point 23 °F    
Average Humidity 60    
Maximum Humidity 100    
Minimum Humidity 20    
Precipitation  
Precipitation 0.00 in - - ()
Sea Level Pressure  
Sea Level Pressure 29.85 in    
Wind  
Wind Speed 12 mph (WSW)    
Max Wind Speed 25 mph    
Max Gust Speed 43 mph    
Visibility 8 miles    
Events Fog    
Averages and records for this station are not official NWS values.
T = Trace of Precipitation, MM = Missing Value Source: NWS Daily Summary

Daily Weather History Graph

Daily Weather History Graph

Search for Another Location

Airport or City:

Trip Planner

Search our weather history database for the weather conditions in past years. The results will help you decide how hot, cold, wet, or windy it might be!

Date:

Astronomy

Feb. 19, 2014 Rise Set
Actual Time 7:04 AM EST 5:58 PM EST
Civil Twilight 6:37 AM EST 6:25 PM EST
Nautical Twilight 6:05 AM EST 6:57 PM EST
Astronomical Twilight 5:34 AM EST 7:28 PM EST
Moon 10:48 PM EST (2/19) 9:10 AM EST (2/19)
Length of Visible Light 11h 48m
Length of Day
10h 54m
Waning Gibbous, 80% of the Moon is Illuminated
Feb 19
Waning Gibbous
Feb 22
Last Quarter
Mar 1
New
Mar 8
First Quarter
Mar 16
Full

Hourly Weather History & Observations

Time (EST) Temp. Windchill Dew Point Humidity Pressure Visibility Wind Dir Wind Speed Gust Speed Precip Events Conditions
12:15 AM 35.6 °F 28.0 °F 1.4 °F 24% 29.92 in 10.0 mi South 10.4 mph - N/A   Clear
12:35 AM 35.6 °F 27.5 °F 1.4 °F 24% 29.91 in 10.0 mi South 11.5 mph - N/A   Clear
12:55 AM 35.6 °F 28.6 °F 1.4 °F 24% 29.90 in 10.0 mi South 9.2 mph - N/A   Clear
1:15 AM 35.6 °F 27.5 °F 1.4 °F 24% 29.90 in 10.0 mi South 11.5 mph - N/A   Clear
1:35 AM 37.4 °F 30.8 °F -0.4 °F 20% 29.89 in 10.0 mi South 9.2 mph - N/A   Clear
1:55 AM 37.4 °F 29.8 °F 1.4 °F 22% 29.88 in 10.0 mi SSW 11.5 mph - N/A   Clear
2:15 AM 37.4 °F 29.8 °F 3.2 °F 24% 29.88 in 10.0 mi SSW 11.5 mph - N/A   Clear
2:35 AM 37.4 °F 30.3 °F 3.2 °F 24% 29.87 in 10.0 mi SSW 10.4 mph - N/A   Clear
2:55 AM 41.0 °F 34.3 °F 8.6 °F 26% 29.86 in 10.0 mi SSW 11.5 mph - N/A   Clear
3:15 AM 41.0 °F 35.2 °F 10.4 °F 29% 29.83 in 10.0 mi SSW 9.2 mph - N/A   Scattered Clouds
3:35 AM 41.0 °F 35.2 °F 14.0 °F 33% 29.81 in 10.0 mi SSW 9.2 mph - N/A   Overcast
3:55 AM 41.0 °F 34.7 °F 14.0 °F 33% 29.79 in 10.0 mi South 10.4 mph - N/A   Mostly Cloudy
4:15 AM 41.0 °F 34.7 °F 17.6 °F 39% 29.77 in 10.0 mi South 10.4 mph - N/A   Clear
4:35 AM 41.0 °F 34.7 °F 17.6 °F 39% 29.77 in 10.0 mi South 10.4 mph - N/A   Scattered Clouds
4:55 AM 41.0 °F 34.7 °F 19.4 °F 42% 29.77 in 10.0 mi South 10.4 mph - N/A   Overcast
5:15 AM 39.2 °F 32.0 °F 26.6 °F 61% 29.77 in 7.0 mi SSW 11.5 mph - N/A   Overcast
5:35 AM 37.4 °F 29.3 °F 28.4 °F 70% 29.77 in 7.0 mi SSW 12.7 mph - N/A   Overcast
5:55 AM 37.4 °F 29.8 °F 35.6 °F 93% 29.75 in 7.0 mi SSW 11.5 mph - N/A   Overcast
6:15 AM 37.4 °F 30.8 °F 37.4 °F 100% 29.75 in 7.0 mi SSW 9.2 mph - N/A   Overcast
6:35 AM 39.2 °F 32.5 °F 39.2 °F 100% 29.75 in 5.0 mi SSW 10.4 mph 17.3 mph N/A   Overcast
6:55 AM 37.4 °F 30.3 °F 37.4 °F 100% 29.75 in 5.0 mi SSW 10.4 mph - N/A   Overcast
7:15 AM 37.4 °F 31.4 °F 37.4 °F 100% 29.76 in 4.0 mi SW 8.1 mph - N/A   Overcast
7:35 AM 37.4 °F 31.4 °F - N/A% 29.76 in 1.2 mi SW 8.1 mph - N/A   Overcast
7:55 AM 37.4 °F 31.4 °F - N/A% 29.76 in 0.5 mi SW 8.1 mph - N/A Fog Fog
8:15 AM 39.2 °F 33.6 °F - N/A% 29.76 in 3.0 mi WSW 8.1 mph - N/A   Overcast
8:35 AM 39.2 °F 32.5 °F - N/A% 29.75 in 3.0 mi SW 10.4 mph 16.1 mph N/A   Overcast
8:55 AM 39.2 °F 32.0 °F - N/A% 29.74 in 0.2 mi SW 11.5 mph 17.3 mph N/A Fog Fog
9:15 AM 39.2 °F 32.0 °F - N/A% 29.74 in 0.2 mi SW 11.5 mph 18.4 mph N/A Fog Fog
9:35 AM 41.0 °F 34.3 °F - N/A% 29.73 in 0.2 mi SW 11.5 mph 18.4 mph N/A Fog Fog
9:55 AM 41.0 °F 33.5 °F - N/A% 29.73 in 0.8 mi SW 13.8 mph 18.4 mph N/A   Overcast
10:15 AM 42.8 °F 35.1 °F - N/A% 29.73 in 0.8 mi SW 16.1 mph 25.3 mph N/A   Overcast
10:35 AM 42.8 °F 35.1 °F - N/A% 29.73 in 0.2 mi SW 16.1 mph 21.9 mph N/A Fog Fog
10:55 AM 42.8 °F 35.1 °F - N/A% 29.73 in 0.2 mi WSW 16.1 mph 24.2 mph N/A Fog Fog
11:15 AM 42.8 °F 36.2 °F - N/A% 29.73 in 0.8 mi WSW 12.7 mph 27.6 mph N/A   Overcast
11:35 AM 42.8 °F 36.2 °F - N/A% 29.72 in 2.0 mi WSW 12.7 mph 24.2 mph N/A   Overcast
11:55 AM 42.8 °F 36.2 °F - N/A% 29.71 in 4.0 mi WSW 12.7 mph 26.5 mph N/A   Haze
12:15 PM 42.8 °F 35.8 °F - N/A% 29.71 in 5.0 mi WSW 13.8 mph 23.0 mph N/A   Haze
12:35 PM 44.6 °F 37.4 °F 44.6 °F 100% 29.71 in 10.0 mi WSW 16.1 mph 29.9 mph N/A   Overcast
12:55 PM 41.0 °F 31.1 °F 41.0 °F 100% 29.71 in 3.0 mi West 23.0 mph 34.5 mph N/A   Overcast
1:15 PM 42.8 °F 35.4 °F 42.8 °F 100% 29.71 in 7.0 mi West 15.0 mph 27.6 mph N/A   Overcast
1:35 PM 42.8 °F 34.0 °F 42.8 °F 100% 29.72 in 10.0 mi West 20.7 mph 31.1 mph N/A   Overcast
1:55 PM 42.8 °F 34.3 °F 37.4 °F 81% 29.72 in 10.0 mi West 19.6 mph 42.6 mph N/A   Mostly Cloudy
2:15 PM 42.8 °F 34.5 °F 32.0 °F 66% 29.72 in 10.0 mi West 18.4 mph 26.5 mph N/A   Mostly Cloudy
2:35 PM 42.8 °F 34.3 °F 28.4 °F 57% 29.73 in 10.0 mi West 19.6 mph 33.4 mph N/A   Scattered Clouds
2:55 PM 44.6 °F 38.4 °F 28.4 °F 53% 29.75 in 10.0 mi West 12.7 mph 28.8 mph N/A   Mostly Cloudy
3:15 PM 42.8 °F 34.8 °F 28.4 °F 57% 29.77 in 10.0 mi West 17.3 mph 26.5 mph N/A   Scattered Clouds
3:35 PM 44.6 °F 35.5 °F 21.2 °F 39% 29.78 in 10.0 mi West 25.3 mph 40.3 mph N/A   Clear
3:55 PM 42.8 °F 33.1 °F 19.4 °F 39% 29.81 in 10.0 mi West 25.3 mph 33.4 mph N/A   Mostly Cloudy
4:15 PM 42.8 °F 33.3 °F 19.4 °F 39% 29.83 in 10.0 mi West 24.2 mph 40.3 mph N/A   Scattered Clouds
4:35 PM 41.0 °F 33.5 °F 19.4 °F 42% 29.85 in 10.0 mi West 13.8 mph 34.5 mph N/A   Clear
4:55 PM 41.0 °F 33.9 °F 21.2 °F 45% 29.88 in 10.0 mi West 12.7 mph 23.0 mph N/A   Scattered Clouds
5:35 PM 39.2 °F 30.2 °F 23.0 °F 52% 29.93 in 10.0 mi West 17.3 mph 33.4 mph N/A   Mostly Cloudy
5:55 PM 37.4 °F 27.5 °F 23.0 °F 56% 29.95 in 10.0 mi West 18.4 mph 27.6 mph N/A   Mostly Cloudy
6:15 PM 37.4 °F 29.8 °F 23.0 °F 56% 29.97 in 10.0 mi West 11.5 mph 24.2 mph N/A   Overcast
6:35 PM 37.4 °F 28.9 °F 23.0 °F 56% 29.99 in 10.0 mi West 13.8 mph 25.3 mph N/A   Overcast
6:55 PM 37.4 °F 29.3 °F 23.0 °F 56% 30.02 in 10.0 mi West 12.7 mph 21.9 mph N/A   Mostly Cloudy
7:15 PM 35.6 °F 27.5 °F 23.0 °F 60% 30.04 in 10.0 mi West 11.5 mph 20.7 mph N/A   Scattered Clouds
7:35 PM 35.6 °F 28.0 °F 24.8 °F 65% 30.05 in 10.0 mi WNW 10.4 mph 20.7 mph N/A   Scattered Clouds
7:55 PM 35.6 °F 28.0 °F 24.8 °F 65% 30.06 in 10.0 mi West 10.4 mph 18.4 mph N/A   Clear
8:15 PM 33.8 °F 24.8 °F 26.6 °F 75% 30.06 in 10.0 mi West 12.7 mph 18.4 mph N/A   Clear
8:35 PM 33.8 °F 25.8 °F 26.6 °F 75% 30.07 in 10.0 mi West 10.4 mph 18.4 mph N/A   Clear
8:55 PM 33.8 °F 25.3 °F 26.6 °F 75% 30.06 in 10.0 mi West 11.5 mph 20.7 mph N/A   Clear
9:15 PM 33.8 °F 23.5 °F 26.6 °F 75% 30.06 in 10.0 mi West 16.1 mph 21.9 mph N/A   Clear
9:35 PM 33.8 °F 24.8 °F 26.6 °F 75% 30.05 in 10.0 mi West 12.7 mph 20.7 mph N/A   Clear
9:55 PM 32.0 °F 24.2 °F 26.6 °F 80% 30.05 in 10.0 mi West 9.2 mph 20.7 mph N/A   Clear
10:15 PM 32.0 °F 23.6 °F 26.6 °F 80% 30.06 in 10.0 mi West 10.4 mph 18.4 mph N/A   Clear
10:35 PM 32.0 °F 25.6 °F 26.6 °F 80% 30.06 in 10.0 mi WNW 6.9 mph 17.3 mph N/A   Clear
10:55 PM 32.0 °F 24.2 °F 26.6 °F 80% 30.07 in 10.0 mi West 9.2 mph - N/A   Clear
11:15 PM 32.0 °F 25.6 °F 26.6 °F 80% 30.07 in 10.0 mi West 6.9 mph - N/A   Clear
11:35 PM 32.0 °F 25.6 °F 26.6 °F 80% 30.06 in 10.0 mi West 6.9 mph - N/A   Clear
11:55 PM 32.0 °F 27.5 °F 26.6 °F 80% 30.07 in 10.0 mi West 4.6 mph - N/A   Clear